Canberra, Australia

6:55 PM AEDT on March 29, 2017 (GMT +1100)
Canberra

Weather History for 94926 - June, 2013

Change the Weather History Date:

Friday, June 14, 2013

  Actual Average Record
Temperature  
Mean Temperature 51 °F -  
Max Temperature 59 °F 53 °F - ()
Min Temperature 43 °F 32 °F - ()
Degree Days  
Heating Degree Days 14    
Growing Degree Days 1 (Base 50)    
Moisture  
Dew Point 40 °F    
Average Humidity 69    
Maximum Humidity 93    
Minimum Humidity 31    
Precipitation  
Precipitation 0.00 in 0.05 in - ()
Sea Level Pressure  
Sea Level Pressure 29.70 in    
Wind  
Wind Speed 11 mph ()    
Max Wind Speed 20 mph    
Max Gust Speed -    
Visibility 6.2 miles    
Events Rain    
T = Trace of Precipitation, MM = Missing Value Source: Averaged Metar Reports

Daily Weather History Graph

Daily Weather History Graph

Search for Another Location

Airport or City:

Trip Planner

Search our weather history database for the weather conditions in past years. The results will help you decide how hot, cold, wet, or windy it might be!

Date:

Astronomy

Jun. 14, 2013 Rise Set
Actual Time 7:09 AM AEST 4:57 PM AEST
Civil Twilight 6:41 AM AEST 5:25 PM AEST
Nautical Twilight 6:09 AM AEST 5:57 PM AEST
Astronomical Twilight 5:38 AM AEST 6:28 PM AEST
Moon 10:30 AM AEST (6/14) 10:02 PM AEST (6/14)
Length of Visible Light 10h 44m
Length of Day
9h 47m
Waxing Crescent, 25% of the Moon is Illuminated
Jun 14
Waxing Crescent
Jun 17
First Quarter
Jun 23
Full
Jun 30
Last Quarter
Jul 8
New

Hourly Weather History & Observations

Time (AEST) Temp. Windchill Dew Point Humidity Pressure Visibility Wind Dir Wind Speed Gust Speed Precip Events Conditions
12:00 AM 48 °F - 43 °F 78% 29.71 in - NNW 12.7 mph - -  
12:00 AM 48.2 °F - 42.8 °F 82% 29.68 in 6.2 mi NNW 12.7 mph - N/A   Mostly Cloudy
12:30 AM 48.2 °F - 42.8 °F 82% 29.65 in 6.2 mi NNW 13.8 mph - N/A   Overcast
12:47 AM 48.2 °F - 44.6 °F 87% 29.68 in 6.2 mi NNW 12.7 mph - N/A   Overcast
1:00 AM 48 °F - 44 °F 81% 29.70 in - NNW 12.7 mph - -  
1:00 AM 48.2 °F - 44.6 °F 87% 29.65 in 6.2 mi NNW 12.7 mph - N/A   Overcast
1:30 AM 48.2 °F - 44.6 °F 87% 29.65 in 6.2 mi NNW 12.7 mph - N/A   Overcast
2:00 AM 48.2 °F - 44.6 °F 87% 29.65 in 6.2 mi NNW 15.0 mph - N/A   Overcast
2:30 AM 48.2 °F - 44.6 °F 87% 29.65 in 6.2 mi NW 12.7 mph - N/A   Overcast
2:50 AM 48.2 °F - 44.6 °F 87% 29.65 in 6.2 mi NW 15.0 mph - N/A   Overcast
3:00 AM 47 °F - 45 °F 89% 29.70 in - NW 13.8 mph - -   Overcast
3:00 AM 48.2 °F - 44.6 °F 87% 29.65 in 6.2 mi NW 13.8 mph - N/A   Overcast
3:30 AM 46.4 °F 41.1 °F 44.6 °F 93% 29.65 in 6.2 mi NNW 11.5 mph - N/A   Overcast
4:00 AM 46 °F - 44 °F 89% 29.68 in - NW 10.4 mph - -  
4:00 AM 46.4 °F 41.5 °F 44.6 °F 93% 29.65 in 6.2 mi NW 10.4 mph - N/A   Scattered Clouds
4:30 AM 44.6 °F 39.2 °F 42.8 °F 93% 29.65 in 6.2 mi NNW 10.4 mph - N/A   Scattered Clouds
5:00 AM 46.4 °F 41.1 °F 42.8 °F 87% 29.65 in 6.2 mi NNW 11.5 mph - N/A   Scattered Clouds
5:30 AM 46.4 °F 41.1 °F 42.8 °F 87% 29.65 in 6.2 mi NNW 11.5 mph - N/A   Mostly Cloudy
6:00 AM 44 °F - 42 °F 89% 29.70 in - North 8.1 mph - -  
6:00 AM 44.6 °F 40.2 °F 41.0 °F 87% 29.65 in 6.2 mi North 8.1 mph - N/A   Mostly Cloudy
6:30 AM 44.6 °F 39.7 °F 42.8 °F 93% 29.65 in 6.2 mi North 9.2 mph - N/A   Mostly Cloudy
7:00 AM 46 °F - 43 °F 84% 29.70 in - North 9.2 mph - -  
7:00 AM 46.4 °F 41.9 °F 42.8 °F 87% 29.68 in 6.2 mi North 9.2 mph - N/A   Mostly Cloudy
7:30 AM 46.4 °F 41.9 °F 42.8 °F 87% 29.68 in 6.2 mi North 9.2 mph - N/A   Mostly Cloudy
8:00 AM 48.2 °F - 42.8 °F 82% 29.68 in 6.2 mi NNW 11.5 mph - N/A   Mostly Cloudy
8:30 AM 48.2 °F - 42.8 °F 82% 29.68 in 6.2 mi NNW 10.4 mph - N/A   Mostly Cloudy
9:00 AM 49 °F - 43 °F 72% 29.73 in - NNW 12.7 mph - -  
9:00 AM 50.0 °F - 42.8 °F 76% 29.68 in 6.2 mi NNW 12.7 mph - N/A   Mostly Cloudy
9:30 AM 50.0 °F - 42.8 °F 76% 29.68 in 6.2 mi NW 12.7 mph - N/A   Mostly Cloudy
10:00 AM 52 °F - 43 °F 62% 29.72 in - NW 12.7 mph - -  
10:00 AM 51.8 °F - 42.8 °F 71% 29.68 in 6.2 mi NW 12.7 mph - N/A   Mostly Cloudy
10:30 AM 51.8 °F - 41.0 °F 67% 29.68 in 6.2 mi WNW 15.0 mph - N/A   Mostly Cloudy
11:00 AM 53.6 °F - 41.0 °F 62% 29.68 in 6.2 mi WNW 12.7 mph - N/A   Mostly Cloudy
11:30 AM 53.6 °F - 41.0 °F 62% 29.68 in 6.2 mi NW 13.8 mph - N/A   Mostly Cloudy
12:00 PM 53 °F - 42 °F 58% 29.71 in - NW 11.5 mph - -   Overcast
12:00 PM 53.6 °F - 42.8 °F 67% 29.68 in 6.2 mi NW 11.5 mph - N/A   Mostly Cloudy
12:30 PM 55.4 °F - 41.0 °F 58% 29.65 in 6.2 mi WNW 11.5 mph - N/A Rain Light Rain Showers
1:00 PM 55 °F - 41 °F 49% 29.69 in - WNW 11.5 mph - -  
1:00 PM 55.4 °F - 41.0 °F 58% 29.65 in 6.2 mi WNW 11.5 mph - N/A   Mostly Cloudy
1:30 PM 57.2 °F - 42.8 °F 59% 29.65 in 6.2 mi WNW 10.4 mph - N/A   Mostly Cloudy
2:00 PM 57.2 °F - 39.2 °F 51% 29.65 in 6.2 mi SW 12.7 mph - N/A   Mostly Cloudy
2:30 PM 59.0 °F - 35.6 °F 42% 29.65 in 6.2 mi SSW 15.0 mph - N/A   Mostly Cloudy
3:00 PM 58 °F - 36 °F 31% 29.71 in - South 15.0 mph - -   Overcast
3:00 PM 57.2 °F - 35.6 °F 44% 29.68 in 6.2 mi South 15.0 mph - N/A   Mostly Cloudy
3:30 PM 57.2 °F - 33.8 °F 41% 29.68 in 6.2 mi South 19.6 mph - N/A   Mostly Cloudy
4:00 PM 55 °F - 34 °F 33% 29.72 in - South 18.4 mph - -  
4:00 PM 55.4 °F - 33.8 °F 44% 29.68 in 6.2 mi South 18.4 mph - N/A   Mostly Cloudy
4:30 PM 53.6 °F - 35.6 °F 51% 29.68 in 6.2 mi South 11.5 mph - N/A   Scattered Clouds
5:00 PM 51.8 °F - 35.6 °F 54% 29.71 in 6.2 mi South 10.4 mph - N/A   Scattered Clouds
5:30 PM 51.8 °F - 33.8 °F 50% 29.71 in 6.2 mi South 9.2 mph - N/A   Mostly Cloudy
6:00 PM 52 °F - 37 °F 46% 29.76 in - WNW 4.6 mph - -   Overcast
6:00 PM 51.8 °F - 37.4 °F 58% 29.71 in 6.2 mi WNW 4.6 mph - N/A   Mostly Cloudy
6:30 PM 50.0 °F - 42.8 °F 76% 29.74 in 6.2 mi NNW 5.8 mph - N/A Rain Light Rain Showers
7:00 PM 50 °F - 43 °F 71% 29.77 in - NNE 3.5 mph - -  
7:00 PM 50.0 °F - 42.8 °F 76% 29.74 in 6.2 mi NNE 3.5 mph - N/A   Mostly Cloudy
7:30 PM 48.2 °F - 42.8 °F 82% 29.74 in 6.2 mi East 5.8 mph - N/A   Mostly Cloudy
8:00 PM 51.8 °F - 33.8 °F 50% 29.77 in 6.2 mi South 13.8 mph - N/A   Mostly Cloudy
8:30 PM 50.0 °F - 33.8 °F 54% 29.77 in 6.2 mi South 10.4 mph - N/A   Mostly Cloudy
9:00 PM 51 °F - 34 °F 41% 29.80 in - South 8.1 mph - -   Overcast
9:00 PM 50.0 °F - 33.8 °F 54% 29.77 in 6.2 mi South 8.1 mph - N/A   Overcast
9:30 PM 50.0 °F - 33.8 °F 54% 29.77 in 6.2 mi SSE 6.9 mph - N/A   Overcast
10:00 PM 50 °F - 34 °F 42% 29.81 in - SSE 6.9 mph - -  
10:00 PM 50.0 °F - 33.8 °F 54% 29.77 in 6.2 mi SSE 6.9 mph - N/A   Mostly Cloudy
10:30 PM 50.0 °F - 35.6 °F 58% 29.77 in 6.2 mi South 12.7 mph - N/A   Scattered Clouds
11:00 PM 48.2 °F - 35.6 °F 62% 29.80 in 6.2 mi South 9.2 mph - N/A   Unknown
11:30 PM 46.4 °F 42.4 °F 35.6 °F 66% 29.80 in 6.2 mi South 8.1 mph - N/A   Unknown